EW3454 Weather Reports


Display with metric or nautical units.
time (UTC)temp
F
wind
direction
speed
MPH
gust
MPH
rain 1hr
in
rain 24hr
in
rain mn
in
humidity
%
barometer
mb
20260505124504 66 339 2.0 6.0 0.00 0.00 0.00 50 1016.8
20260505123604 65 360 3.0 9.0 0.00 0.00 0.00 48 1016.7
20260505122705 65 360 2.0 8.0 0.00 0.00 0.00 44 1016.7
20260505121805 64 360 3.0 10.0 0.00 0.00 0.00 46 1016.6
20260505121117 64 360 3.0 9.0 0.00 0.00 0.00 45 1016.6
20260505120005 63 360 2.0 8.0 0.00 0.00 0.00 41 1016.5
20260505115616 63 360 2.0 7.0 0.00 0.00 0.00 39 1016.5
20260505114504 62 359 2.0 7.0 0.00 0.00 0.00 39 1016.4
20260505113604 62 271 1.0 5.0 0.00 0.00 0.00 36 1016.4
20260505112918 61 238 1.0 5.0 0.00 0.00 0.00 35 1016.3
20260505111804 60 257 2.0 7.0 0.00 0.00 0.00 31 1016.3
20260505110905 60 258 1.0 5.0 0.00 0.00 0.00 28 1016.3
20260505101804 59 263 1.0 5.0 0.00 0.00 0.00 23 1015.7
20260505100905 59 249 1.0 6.0 0.00 0.00 0.00 25 1015.6
20260505100005 60 256 2.0 6.0 0.00 0.00 0.00 27 1015.5
20260505095405 60 261 1.0 5.0 0.00 0.00 0.00 28 1015.5
20260505094505 60 264 2.0 7.0 0.00 0.00 0.00 29 1015.4
20260505093605 60 262 2.0 6.0 0.00 0.00 0.00 30 1015.3
20260505092914 60 270 1.0 6.0 0.00 0.00 0.00 30 1015.2
20260505091805 60 258 2.0 7.0 0.00 0.00 0.00 34 1015.2
20260505090905 60 255 2.0 8.0 0.00 0.00 0.00 33 1015.2
20260505090005 60 279 2.0 5.0 0.00 0.00 0.00 32 1015.1
20260505085405 60 274 1.0 4.0 0.00 0.00 0.00 32 1015.1
20260505084715 60 261 1.0 6.0 0.00 0.00 0.00 33 1015.0
20260505083817 61 266 2.0 6.0 0.00 0.00 0.00 34 1015.1
20260505082915 61 268 2.0 6.0 0.00 0.00 0.00 34 1015.1
20260505082017 61 259 1.0 7.0 0.00 0.00 0.00 34 1015.1
20260505081114 61 278 1.0 6.0 0.00 0.00 0.00 35 1015.2
20260505080005 61 264 1.0 5.0 0.00 0.00 0.00 37 1015.1
20260505075405 61 226 1.0 7.0 0.00 0.00 0.00 38 1015.1
20260505074505 61 252 2.0 7.0 0.00 0.00 0.00 38 1015.1
20260505073604 61 263 1.0 8.0 0.00 0.00 0.00 38 1015.0
20260505072705 62 263 1.0 6.0 0.00 0.00 0.00 39 1014.9
20260505071805 62 256 1.0 9.0 0.00 0.00 0.00 40 1014.8
20260505070905 62 265 2.0 5.0 0.00 0.00 0.00 41 1014.8
20260505070005 62 251 2.0 7.0 0.00 0.00 0.00 42 1014.8
20260505065405 62 254 2.0 10.0 0.00 0.00 0.00 42 1014.8
20260505064504 62 246 2.0 9.0 0.00 0.00 0.00 44 1014.7
20260505063604 62 240 1.0 7.0 0.00 0.00 0.00 45 1014.8
20260505062705 62 250 2.0 9.0 0.00 0.00 0.00 45 1014.8
20260505062018 62 267 2.0 9.0 0.00 0.00 0.00 46 1014.8
20260505060904 62 262 1.0 10.0 0.00 0.00 0.00 45 1014.9
20260505060218 62 257 1.0 10.0 0.00 0.00 0.00 45 1014.9
20260505055404 62 287 1.0 4.0 0.00 0.00 0.00 47 1014.9
20260505054717 63 279 1.0 5.0 0.00 0.00 0.00 48 1015.0
20260505053604 63 235 2.0 6.0 0.00 0.00 0.00 49 1014.9
20260505052705 63 249 2.0 8.0 0.00 0.00 0.00 49 1014.8
20260505051805 63 240 2.0 8.0 0.00 0.00 0.00 48 1014.9
20260505050904 63 245 2.0 8.0 0.00 0.00 0.00 48 1014.9
20260505040904 64 257 3.0 9.0 0.00 0.00 0.00 50 1014.9
20260505040119 65 258 3.0 10.0 0.00 0.00 0.00 51 1014.8
20260505035404 65 231 2.0 10.0 0.00 0.00 0.00 51 1014.8
20260505034505 65 260 2.0 8.0 0.00 0.00 0.00 51 1014.8
20260505033605 65 264 2.0 10.0 0.00 0.00 0.00 52 1014.7
20260505032705 65 253 2.0 10.0 0.00 0.00 0.00 52 1014.8
20260505031804 65 298 1.0 7.0 0.00 0.00 0.00 51 1014.8
20260505030904 66 267 3.0 7.0 0.00 0.00 0.00 51 1014.7
20260505030215 66 265 2.0 11.0 0.00 0.00 0.00 50 1014.7
20260505025405 66 265 3.0 12.0 0.00 0.00 0.00 50 1014.7
20260505024505 66 246 2.0 12.0 0.00 0.00 0.00 49 1014.7
20260505023605 66 282 2.0 7.0 0.00 0.00 0.00 47 1014.7
20260505022704 66 273 2.0 7.0 0.00 0.00 0.00 46 1014.6
20260505021805 66 300 2.0 7.0 0.00 0.00 0.00 46 1014.5
20260505020905 66 263 1.0 10.0 0.00 0.00 0.00 46 1014.4
20260505020005 67 258 2.0 10.0 0.00 0.00 0.00 45 1014.2
20260505015405 66 263 2.0 9.0 0.00 0.00 0.00 44 1014.1
20260505014505 67 262 1.0 7.0 0.00 0.00 0.00 44 1014.2
20260505013604 66 272 2.0 7.0 0.00 0.00 0.00 44 1014.3
20260505012705 66 245 1.0 8.0 0.00 0.00 0.00 43 1014.1
20260505011805 66 315 0.0 4.0 0.00 0.00 0.00 48 1014.0
20260505011114 67 254 0.0 5.0 0.00 0.00 0.00 51 1013.9
20260505010005 67 48 0.0 3.0 0.00 0.00 0.00 54 1013.8
20260505005618 67 18 0.0 3.0 0.00 0.00 0.00 55 1013.7
20260505004504 67 47 0.0 2.0 0.00 0.00 0.00 54 1013.6
20260505003605 68 309 0.0 3.0 0.00 0.00 0.00 52 1013.4
20260505002705 68 253 0.0 2.0 0.00 0.00 0.00 49 1013.3
20260505001804 69 221 0.0 1.0 0.00 0.00 0.00 50 1013.2
20260505000904 70 224 0.0 2.0 0.00 0.00 0.00 48 1013.2
20260505000005 71 224 0.0 2.0 0.00 0.00 0.00 46 1013.1
20260504235405 71 224 0.0 1.0 0.00 0.00 0.00 44 1013.1
20260504234504 72 223 0.0 1.0 0.00 0.00 0.00 42 1013.0
20260504233604 73 220 0.0 1.0 0.00 0.00 0.00 43 1012.9
20260504232705 74 360 0.0 5.0 0.00 0.00 0.00 39 1012.8
20260504231805 74 360 0.0 3.0 0.00 0.00 0.00 39 1012.7
20260504230904 75 360 1.0 8.0 0.00 0.00 0.00 38 1012.6
20260504230005 75 333 1.0 6.0 0.00 0.00 0.00 37 1012.8
20260504225405 75 289 2.0 6.0 0.00 0.00 0.00 37 1012.7
20260504224504 76 263 1.0 8.0 0.00 0.00 0.00 36 1012.7
20260504223604 77 248 2.0 8.0 0.00 0.00 0.00 36 1012.6
20260504222705 77 233 2.0 7.0 0.00 0.00 0.00 35 1012.6
20260504221805 78 253 2.0 7.0 0.00 0.00 0.00 35 1012.6
20260504220905 78 265 2.0 7.0 0.00 0.00 0.00 34 1012.6
20260504220005 79 232 2.0 9.0 0.00 0.00 0.00 34 1012.6
20260504215405 79 236 1.0 5.0 0.00 0.00 0.00 34 1012.6
20260504214504 78 267 2.0 12.0 0.00 0.00 0.00 35 1012.6
20260504213605 79 255 2.0 9.0 0.00 0.00 0.00 33 1012.7
20260504212704 79 235 2.0 11.0 0.00 0.00 0.00 34 1012.7
20260504211804 79 257 2.0 10.0 0.00 0.00 0.00 33 1012.7
20260504211116 78 240 3.0 10.0 0.00 0.00 0.00 32 1012.8
20260504210005 79 260 4.0 9.0 0.00 0.00 0.00 33 1012.7
20260504205404 79 268 3.0 11.0 0.00 0.00 0.00 33 1012.7
20260504204504 79 255 3.0 11.0 0.00 0.00 0.00 32 1012.7
20260504203605 79 269 5.0 11.0 0.00 0.00 0.00 33 1012.8
20260504202917 79 268 3.0 11.0 0.00 0.00 0.00 31 1012.9
20260504201804 79 256 3.0 14.0 0.00 0.00 0.00 33 1012.9
20260504200904 79 259 4.0 14.0 0.00 0.00 0.00 31 1013.0
20260504200005 79 250 2.0 11.0 0.00 0.00 0.00 33 1013.0
20260504195404 79 271 3.0 12.0 0.00 0.00 0.00 33 1013.0
20260504194505 79 257 2.0 10.0 0.00 0.00 0.00 32 1013.2
20260504193605 79 265 2.0 10.0 0.00 0.00 0.00 32 1013.3
20260504192705 78 255 2.0 9.0 0.00 0.00 0.00 35 1013.4
20260504191805 78 256 3.0 9.0 0.00 0.00 0.00 36 1013.5
20260504190904 78 270 3.0 10.0 0.00 0.00 0.00 37 1013.6
20260504190005 78 257 4.0 11.0 0.00 0.00 0.00 36 1013.8
20260504185404 77 265 5.0 12.0 0.00 0.00 0.00 35 1013.9
20260504184505 77 267 5.0 12.0 0.00 0.00 0.00 36 1013.9
20260504183604 76 277 4.0 12.0 0.00 0.00 0.00 37 1014.2
20260504182705 76 272 4.0 12.0 0.00 0.00 0.00 37 1014.5
20260504182016 76 265 4.0 12.0 0.00 0.00 0.00 39 1014.5
20260504180904 75 264 4.0 13.0 0.00 0.00 0.00 39 1014.5
20260504180005 76 259 3.0 13.0 0.00 0.00 0.00 39 1014.8
20260504175405 75 256 2.0 9.0 0.00 0.00 0.00 40 1014.7
20260504174504 74 273 4.0 14.0 0.00 0.00 0.00 41 1014.7
20260504173605 74 268 3.0 10.0 0.00 0.00 0.00 44 1014.9
20260504172704 74 260 4.0 16.0 0.00 0.00 0.00 42 1014.8
20260504172017 74 270 5.0 16.0 0.00 0.00 0.00 40 1015.0
20260504171114 74 273 4.0 11.0 0.00 0.00 0.00 42 1015.0
20260504150905 69 271 2.0 11.0 0.00 0.00 0.00 55 1016.3
20260504140905 66 291 2.0 8.0 0.00 0.00 0.00 56 1016.7